Location: Bucharest
(44.4268°N, 26.1025°E)
Time: 23:54:29
(UTC+03:00)

O/OREOS (USA 219) - Pass Details

Date: 11 July 2022
Orbit: 621 x 646 km, 72.0° (Epoch: 22 May)

Event Time Altitude Azimuth Distance (km) Brightness Sun altitude
Rises 21:53:25 0° 350° (N) 2,968 ? -8.4°
Reaches altitude 10° 21:56:44 10° 15° (NNE) 2,054 ? -8.8°
Maximum altitude 21:59:15 14° 48° (NE) 1,774 ? -9.1°
Drops below altitude 10° 22:01:46 10° 82° (E) 2,047 ? -9.5°
Enters shadow 22:03:13 - 95° (E) 2,396 ? -9.6°
